User: anonymous   Login
Location: Brno
(49.2000°N, 16.6330°E)
Time: 03:16:35
(UTC+02:00)
Language:

Meteor 1-4 Rocket - Orbit

View from above orbital plane
View from above orbital plane
View from above satellite
View from above satellite

Ground track
Ground track

The orbit data is extracted from the following two-line orbital elements,

1 04394U 70037B   15115.14536957  .00007605  00000-0  30297-3 0  9992
2 04394 081.2456 213.1788 0043639 274.4930 085.1318 15.24180083445159
Epoch (UTC): 25 April 2015 03:29:19
Eccentricity: 0.0043639
inclination: 81.2456°
perigee height: 463 km
apogee height: 523 km
right ascension of ascending node: 213.1788°
argument of perigee: 274.4930°
revolutions per day: 15.24180083
mean anomaly at epoch: 85.1318°
orbit number at epoch: 44515

The dashed part of the orbit path shows where the satellite is in the earth's shadow,  

DLR